Location: doobydoo
(53.3403°N, 2.6908°W)
Time: 19:47:06
(UTC+00:00)

ISS - Pass Details

Date: 21 November 2021
Orbit: 413 x 422 km, 51.6° (Epoch: 18 January)

Event Time Altitude Azimuth Distance (km) Brightness Sun altitude
Rises 18:56:39 0° 231° (SW) 2,376 0.8 -24.9°
Reaches altitude 10° 18:58:51 10° 222° (SW) 1,511 -0.4 -25.2°
Enters shadow 18:59:55 18° 212° (SSW) 1,136 -1.3 -25.3°
